Lid_Strength_Index
10 10 11 10 10 10 11 11 12 14 14 12 11 10 9 10 8 9 9 5 2 3 3 2 2 3 3 3 4 4 4 4 4 4 3 3 2 2
10 10 10 10 10 10 10 11 11 12 13 11 11 11 10 8 8 8 8 4 4 4 3 4 4 3 3 3 3 3 4 4 4 4 4 4 3 3
10 10 10 10 10 10 10 10 12 12 13 12 12 11 11 11 10 9 8 9 9 5 4 4 4 4 4 4 4 4 4 4 4 3 4 4 4 3
10 10 9 9 10 10 10 11 12 11 12 11 11 10 11 10 10 10 8 7 9 6 4 4 5 5 5 4 4 4 5 5 4 4 3 3 4 4
9 9 9 8 9 10 10 10 10 9 11 12 11 10 9 8 8 8 8 8 7 5 5 5 5 4 4 4 4 5 5 5 5 5 5 4 4 4
8 8 8 8 8 9 9 10 10 11 10 11 11 10 10 8 8 9 8 9 9 8 7 6 6 6 6 5 5 5 5 5 5 5 5 5 5 5
7 6 6 5 5 6 9 10 9 9 9 10 10 10 9 9 9 8 9 9 9 9 8 8 7 7 7 5 5 5 5 5 6 6 6 6 7 7
8 7 6 4 3 2 2 2 6 8 9 9 10 10 10 9 9 9 10 10 11 8 8 8 6 6 6 5 3 3 3 3 4 4 5 6 7 7
8 6 5 3 2 4 2 1 1 2 3 7 8 9 9 8 9 10 9 9 9 7 7 8 6 7 6 5 3 3 3 3 4 4 4 5 6 7
5 4 4 3 3 2 3 4 5 5 5 5 6 6 7 7 8 8 8 8 7 7 6 9 7 7 5 5 4 3 4 4 4 4 5 5 5 6
3 3 3 3 2 4 6 7 7 7 4 2 2 3 3 4 4 6 7 8 9 8 6 7 7 7 6 7 6 5 5 5 5 5 5 5 5 5
4 4 2 3 5 5 8 8 9 8 8 7 7 6 5 5 3 5 5 8 8 9 6 7 7 8 10 8 8 7 7 6 6 6 6 6 6 5
4 4 4 5 5 6 6 9 8 7 7 8 8 7 6 6 5 6 6 7 8 8 5 6 8 9 10 10 9 8 8 7 7 7 7 7 6 5
4 4 4 5 5 5 5 5 5 5 7 8 8 7 6 6 7 7 6 6 6 6 5 7 9 10 11 11 11 9 8 8 8 8 8 7 6 5
4 3 4 5 5 5 4 4 4 6 7 8 7 7 8 7 7 7 7 7 7 7 6 7 8 9 10 11 11 11 10 8 8 8 7 6 5 4
4 7 5 4 4 4 4 4 5 6 7 8 8 8 8 8 9 8 8 7 8 8 7 7 8 9 11 11 10 11 9 9 7 6 6 6 5 3
7 8 8 7 7 6 5 6 6 6 7 8 8 8 9 9 8 7 8 8 10 10 10 9 9 8 9 10 11 9 9 6 6 6 6 6 4 1
9 9 9 8 7 5 6 6 7 6 7 7 8 8 9 9 9 9 8 10 11 11 11 11 10 11 10 9 7 9 8 7 6 6 6 5 4 2
10 10 8 7 6 5 6 6 7 7 7 8 8 9 9 9 9 9 9 10 11 11 12 11 11 12 13 14 10 7 8 6 6 6 4 4 4 3
9 8 7 6 5 6 6 6 6 7 8 8 8 8 9 9 10 10 10 11 12 12 12 11 11 12 13 14 12 8 6 7 5 6 7 6 7 5
7 7 6 6 6 6 6 6 6 7 8 8 9 9 9 10 11 10 10 12 13 13 13 12 11 11 10 9 8 7 6 6 5 5 5 5 6 6
7 6 5 6 6 6 6 6 7 7 8 8 9 9 10 10 11 10 11 13 13 13 13 11 10 10 10 10 9 8 6 6 5 5 5 5 5 7
6 6 6 6 6 6 6 6 7 7 8 9 9 10 10 11 11 10 11 13 13 13 12 12 11 10 10 9 8 7 7 6 6 7 7 5 6 5